Regional Weather Roundup
Issued by NWS Bismarck, ND

Home | Current Version | Previous Version | Text Only | Print | Product List | Glossary On
Versions: 1 2 3 4 5 6 7 8 9 10 11 12 13 14 15 16 17 18 19 20 21 22 23 24 25 26 27 28 29 30 31 32 33 34 35 36 37 38 39 40 41 42 43 44 45 46 47 48 49 50
000
ASUS43 KBIS 181510
RWRBIS

NWR BROADCAST TEXT
NATIONAL WEATHER SERVICE BISMARCK ND
1000 AM CDT FRI AUG 18 2017

NOTE: "FAIR" INDICATES FEW OR NO CLOUDS BELOW 12,000 FEET WITH NO
SIGNIFICANT WEATHER AND/OR OBSTRUCTIONS TO VISIBILITY.


CITY           SKY/WX    TMP DP  RH WIND       PRES   REMARKS
WILLISTON      SUNNY     66  55  67 CALM      29.99S
MINOT          SUNNY     68  57  68 W12       29.93S
MINOT AFB      SUNNY     68  56  65 NW8       29.92S
BISMARCK       SUNNY     69  57  65 NW8       29.96S
DICKINSON      SUNNY     69  54  58 W9        29.99R
GARRISON         N/A     65  56  72 W7        29.95S
HETTINGER ARPT SUNNY     66  53  63 NW6       30.02S
JAMESTOWN      PTSUNNY   63  58  83 N7        29.89S
CARRINGTON     CLOUDY    63  61  94 W9        29.93S
HAZEN          FAIR      64  57  77 SW5       29.98S
LINTON         FAIR      66  55  68 NW14      29.97R
MANDAN         FAIR      64  55  72 N7        29.97S
RUGBY          FAIR      64  61  88 W7        29.92S
STANLEY        FAIR      64  61  88 NW6       30.00S
TIOGA          FAIR      63  63 100 CALM      30.00S
WATFORD CITY   FAIR      68  55  64 SW7       29.99S
$$

CITY           SKY/WX    TMP DP  RH WIND       PRES   REMARKS
GRAND FORKS    PTSUNNY   73  60  63 N12       29.85S
GRAND FORKS AF MOSUNNY   73  57  57 N8        29.86F
DEVILS LAKE    CLOUDY    64  59  83 N5        29.90S
FARGO          CLOUDY    67  60  78 W5        29.88R
CANDO          FAIR      68  64  88 W13       29.93S
CAVALIER       FAIR      64  59  82 CALM      29.84R
GRAFTON        FAIR      66  61  82 SW6       29.87R
GWINNER        CLOUDY    61  59  94 NE8       29.90R
LANGDON        FAIR      63  63 100 W8        29.90R
ROLLA          FAIR      66  61  82 W5        29.92S
WALHALLA       FAIR      66  66 100 W7        29.85S
$$

CITY           SKY/WX    TMP DP  RH WIND       PRES   REMARKS
ABERDEEN       SUNNY     69  60  73 SW12      29.88S
MOBRIDGE       SUNNY     65  58  78 NW10      29.93R
BUFFALO          N/A     70  50  49 N6        29.99R
RAPID CITY     MOSUNNY   71  50  47 N9        30.06R
GLASGOW        SUNNY     66  50  56 SE7       29.98S
SIDNEY         SUNNY     66  59  78 S3        30.00R
WOLF POINT     SUNNY     66  51  58 E7        29.99F
GLENDIVE       SUNNY     71  50  47 S5        30.02S
MILES CITY     SUNNY     67  43  41 SE6       30.03R
BAKER          SUNNY     69  48  47 VRB5      30.05R
$$

CITY           SKY/WX    TMP DP  RH WIND       PRES   REMARKS
BILLINGS       SUNNY     63  41  44 SW14      30.07S
GREAT FALLS    SUNNY     68  38  33 S14       30.05R
REGINA         MOSUNNY   64  50  59 NW5       29.97S
ESTEVAN        MOSUNNY   64  52  63 NW7       29.97S
$$





USA.gov is the U.S. government's official web portal to all federal, state and local government web resources and services.